User: anonymous   Login
Location: Unspecified
(0.0000°N, 0.0000°E)
Time: 04:09:41
(UTC+00:00)
Language:

UFO 11 (USA 174) - Orbit

View from above orbital plane
View from above orbital plane
View from above satellite
View from above satellite

Ground track
Ground track

The orbit data is extracted from the following two-line orbital elements,

1 28117U 03057A   17348.65996900 0.00000000  00000-0  00000-0 0    04
2 28117   5.1793  35.7875 0004268 291.0415  68.9180  1.00270000    05
Epoch (UTC): 14 December 2017 15:50:21
Eccentricity: 0.0004268
inclination: 5.1793°
perigee height: 35769 km
apogee height: 35805 km
right ascension of ascending node: 35.7875°
argument of perigee: 291.0415°
revolutions per day: 1.00270000
mean anomaly at epoch: 68.9180°
orbit number at epoch: 0

The dashed part of the orbit path shows where the satellite is in the earth's shadow,  

DLR